TimeEST,TemperatureF,Dew PointF,Humidity,Sea Level PressureIn,VisibilityMPH,Wind Direction,Wind SpeedMPH,Gust SpeedMPH,PrecipitationIn,Events,Conditions,WindDirDegrees,DateUTC
12:16 AM,28.4,26.6,93,29.89,1.2,ENE,3.5,-,0.01,Snow,Light Snow,60,2012-12-29 05:16:00
12:53 AM,28.0,26.1,92,29.89,1.0,ENE,4.6,-,0.02,Snow,Light Snow,70,2012-12-29 05:53:00
1:29 AM,28.4,24.8,86,29.85,0.8,ENE,5.8,-,0.02,Snow,Light Snow,60,2012-12-29 06:29:00
1:36 AM,28.4,24.8,86,29.85,1.0,ENE,4.6,-,0.02,Snow,Light Snow,70,2012-12-29 06:36:00
1:53 AM,28.0,25.0,88,29.86,1.0,NE,3.5,-,0.03,Snow,Light Snow,50,2012-12-29 06:53:00
2:00 AM,28.4,24.8,86,29.84,0.8,ENE,4.6,-,0.00,Snow,Light Snow,60,2012-12-29 07:00:00
2:07 AM,28.4,24.8,86,29.83,1.0,NE,4.6,-,0.01,Snow,Light Snow,50,2012-12-29 07:07:00
2:32 AM,28.4,24.8,86,29.83,1.2,ENE,4.6,-,0.02,Snow,Light Snow,60,2012-12-29 07:32:00
2:49 AM,28.4,24.8,86,29.83,0.8,ENE,4.6,-,0.02,Snow,Light Snow,70,2012-12-29 07:49:00
2:53 AM,28.0,25.0,88,29.86,0.8,NE,3.5,-,0.03,Snow,Light Snow,50,2012-12-29 07:53:00
3:06 AM,28.4,24.8,86,29.83,1.0,NNE,4.6,-,0.00,Snow,Light Snow,30,2012-12-29 08:06:00
3:38 AM,26.6,24.8,93,29.83,0.8,NE,4.6,-,0.02,Snow,Light Snow,50,2012-12-29 08:38:00
3:53 AM,27.0,25.0,92,29.85,1.0,NE,5.8,-,0.03,Snow,Light Snow,40,2012-12-29 08:53:00
4:18 AM,26.6,24.8,93,29.82,0.8,NE,4.6,-,0.01,Snow,Light Snow,40,2012-12-29 09:18:00
4:27 AM,26.6,24.8,93,29.81,1.0,NNE,3.5,-,0.01,Snow,Light Snow,30,2012-12-29 09:27:00
4:53 AM,28.0,25.0,88,29.83,1.2,NNE,5.8,-,0.02,Snow,Light Snow,30,2012-12-29 09:53:00
5:53 AM,28.0,26.1,92,29.83,1.2,North,4.6,-,0.01,Snow,Light Snow,360,2012-12-29 10:53:00
6:53 AM,28.0,25.0,88,29.83,1.8,North,5.8,-,0.01,Snow,Light Snow,360,2012-12-29 11:53:00
7:33 AM,28.4,24.8,86,29.80,2.0,North,5.8,-,0.00,Snow,Light Snow,350,2012-12-29 12:33:00
7:40 AM,28.4,24.8,86,29.80,2.5,North,5.8,-,0.00,Snow,Light Snow,360,2012-12-29 12:40:00
7:53 AM,28.0,25.0,88,29.83,2.5,North,6.9,-,0.00,Snow,Light Snow,360,2012-12-29 12:53:00
8:01 AM,28.4,24.8,86,29.80,2.0,North,6.9,-,0.00,Snow,Light Snow,350,2012-12-29 13:01:00
8:26 AM,28.4,24.8,86,29.80,2.5,North,5.8,-,0.00,Snow,Light Snow,350,2012-12-29 13:26:00
8:34 AM,26.6,24.8,93,29.80,2.0,NNW,5.8,-,0.00,Snow,Light Snow,330,2012-12-29 13:34:00
8:51 AM,28.4,24.8,86,29.81,3.0,NNW,6.9,-,0.00,,Overcast,330,2012-12-29 13:51:00
8:53 AM,28.0,25.0,88,29.84,3.0,NNW,6.9,-,0.00,,Overcast,330,2012-12-29 13:53:00
9:20 AM,28.4,26.6,93,29.82,3.0,NNW,6.9,-,N/A,,Overcast,340,2012-12-29 14:20:00
9:53 AM,28.9,26.1,89,29.86,4.0,NNW,6.9,-,N/A,,Overcast,330,2012-12-29 14:53:00
10:53 AM,30.0,25.0,82,29.88,5.0,NNW,6.9,-,N/A,,Haze,330,2012-12-29 15:53:00
11:53 AM,30.0,25.0,82,29.88,5.0,NW,8.1,-,N/A,,Haze,320,2012-12-29 16:53:00
12:15 PM,30.2,24.8,80,29.85,5.0,NW,6.9,-,N/A,,Haze,320,2012-12-29 17:15:00
12:27 PM,30.2,24.8,80,29.85,5.0,NW,6.9,-,N/A,,Haze,320,2012-12-29 17:27:00
12:53 PM,30.0,25.0,82,29.88,4.0,Calm,Calm,-,N/A,,Haze,0,2012-12-29 17:53:00
1:11 PM,30.2,26.6,86,29.85,2.5,WNW,3.5,-,N/A,,Overcast,300,2012-12-29 18:11:00
1:28 PM,30.2,24.8,80,29.85,2.5,Variable,3.5,-,N/A,,Haze,0,2012-12-29 18:28:00
1:50 PM,28.4,26.6,93,29.86,2.0,Variable,3.5,-,N/A,,Overcast,0,2012-12-29 18:50:00
1:53 PM,30.0,26.1,85,29.88,2.0,Calm,Calm,-,N/A,,Overcast,0,2012-12-29 18:53:00
2:03 PM,30.2,26.6,86,29.86,3.0,WNW,4.6,-,N/A,,Overcast,290,2012-12-29 19:03:00
2:53 PM,30.0,26.1,85,29.89,3.0,NW,4.6,-,0.00,Snow,Light Snow,310,2012-12-29 19:53:00
3:23 PM,30.2,26.6,86,29.88,3.0,Calm,Calm,-,0.00,Snow,Light Snow,0,2012-12-29 20:23:00
3:31 PM,30.2,26.6,86,29.89,2.5,WNW,3.5,-,0.00,Snow,Light Snow,290,2012-12-29 20:31:00
3:51 PM,30.2,26.6,86,29.89,2.5,Calm,Calm,-,0.00,Snow,Light Snow,0,2012-12-29 20:51:00
3:53 PM,30.0,26.1,85,29.92,2.5,Calm,Calm,-,0.00,Snow,Light Snow,0,2012-12-29 20:53:00
4:08 PM,30.2,26.6,86,29.90,2.5,Variable,3.5,-,0.00,Snow,Light Snow,0,2012-12-29 21:08:00
4:19 PM,30.2,26.6,86,29.91,1.8,Variable,3.5,-,0.00,Snow,Light Snow,0,2012-12-29 21:19:00
4:37 PM,30.2,26.6,86,29.92,1.0,Calm,Calm,-,0.00,Snow,Light Snow,0,2012-12-29 21:37:00
4:53 PM,30.0,26.1,85,29.95,1.5,Calm,Calm,-,0.00,Snow,Light Snow,0,2012-12-29 21:53:00
5:11 PM,30.2,26.6,86,29.93,2.0,Variable,3.5,-,0.00,Snow,Light Snow,0,2012-12-29 22:11:00
5:18 PM,30.2,26.6,86,29.93,2.5,WNW,3.5,-,0.00,Snow,Light Snow,300,2012-12-29 22:18:00
5:33 PM,30.2,26.6,86,29.94,4.0,Calm,Calm,-,0.00,,Overcast,0,2012-12-29 22:33:00
5:59 PM,30.2,26.6,86,29.95,2.0,Calm,Calm,-,0.00,Snow,Light Snow,0,2012-12-29 22:59:00
6:08 PM,30.2,26.6,86,29.96,1.8,WNW,4.6,-,0.00,Snow,Light Snow,300,2012-12-29 23:08:00
6:15 PM,28.4,26.6,93,29.96,2.0,Calm,Calm,-,0.00,Snow,Light Snow,0,2012-12-29 23:15:00
6:22 PM,28.4,26.6,93,29.96,2.5,Variable,3.5,-,0.00,Snow,Light Snow,0,2012-12-29 23:22:00
6:45 PM,28.4,26.6,93,29.98,1.8,WNW,4.6,-,0.00,Snow,Light Snow,300,2012-12-29 23:45:00
6:53 PM,28.9,26.1,89,30.01,2.0,NW,5.8,-,0.01,Snow,Light Snow,310,2012-12-29 23:53:00
7:13 PM,28.4,26.6,93,29.99,2.5,NW,4.6,-,0.00,Snow,Light Snow,310,2012-12-30 00:13:00
7:24 PM,28.4,26.6,93,29.99,3.0,WNW,3.5,-,0.00,Snow,Light Snow,300,2012-12-30 00:24:00
7:53 PM,28.0,26.1,92,30.03,4.0,Calm,Calm,-,0.00,,Overcast,0,2012-12-30 00:53:00
8:53 PM,28.9,25.0,85,30.06,5.0,WNW,3.5,-,0.00,,Overcast,290,2012-12-30 01:53:00
9:07 PM,28.4,24.8,86,30.03,5.0,WNW,3.5,-,N/A,,Overcast,290,2012-12-30 02:07:00
9:53 PM,28.9,25.0,85,30.09,6.0,Variable,3.5,-,N/A,,Overcast,0,2012-12-30 02:53:00
10:41 PM,28.4,24.8,86,30.07,8.0,Calm,Calm,-,N/A,,Overcast,0,2012-12-30 03:41:00
10:53 PM,28.0,24.1,85,30.11,8.0,Variable,3.5,-,N/A,,Overcast,0,2012-12-30 03:53:00
11:53 PM,26.1,21.9,84,30.14,5.0,Variable,3.5,-,N/A,,Clear,0,2012-12-30 04:53:00